Regional Weather Roundup
Issued by NWS

Home | Current Version | Previous Version | Text Only | Print | Product List | Glossary Off
Versions: 1 2 3 4 5 6 7 8 9 10 11 12 13 14 15 16 17 18 19 20 21 22 23 24 25 26 27 28 29 30 31 32 33 34 35 36 37 38 39 40 41 42 43 44 45 46 47 48 49 50

000
ASUS43 KDMX 011007
RWRIA

WEATHER ROUNDUP FOR IOWA
NATIONAL WEATHER SERVICE DES MOINES IA
500 AM CDT FRI AUG 01 2014

NOTE: "FAIR" INDICATES FEW OR NO CLOUDS BELOW 12,000 FEET WITH NO
SIGNIFICANT WEATHER AND/OR OBSTRUCTIONS TO VISIBILITY.

* - THESE STATIONS ARE NOT NWS STATIONS...THUS NOT UNDER NWS
QUALITY CONTROL.  THEY ALSO DO NOT REPORT WEATHER SUCH
AS PRECIPITATION OR FOG.

IAZ001>003-012>014-020>022-031>034-043>046-011100-
   NORTHWEST IOWA

CITY           SKY/WX    TMP DP  RH WIND       PRES   REMARKS
CARROLL *      CLOUDY    54  52  94 CALM      30.07S
CHEROKEE *     PTCLDY    55  55 100 CALM      30.08S
DENISON *      PTCLDY    57  57 100 CALM      30.05F
LE MARS *      CLEAR     54  52  94 CALM      30.08S
ORANGE CITY *  CLEAR     61  57  88 CALM      30.08S
SHELDON *      CLEAR     54  52  94 CALM      30.07S
SIOUX CITY     FOG       55  53  93 CALM      30.07R VSB 3/4
SPENCER        CLEAR     56  54  93 CALM      30.08S
STORM LAKE *   CLEAR     59  59 100 W3        30.08S
$$

IAZ055>058-069>071-079>083-090>094-011100-
   SOUTHWEST IOWA

CITY           SKY/WX    TMP DP  RH WIND       PRES   REMARKS
ATLANTIC *     PTCLDY    63  61  94 CALM      30.06S
AUDUBON *      CLEAR     61  57  88 CALM      30.08F
CLARINDA *     CLOUDY    64  63  94 CALM      30.09F
COUNCIL BLFS *   N/A     64  64 100 SE5       30.05R
CRESTON *      MOCLDY    64  61  88 SW5       30.08F
HARLAN  *      CLEAR     61  61 100 CALM      30.09F FOG
LAMONI         MOCLDY    64  59  83 NW3       30.08S
RED OAK *      MOCLDY    64  63  94 CALM      30.07F
SHENANDOAH *   MOCLDY    64  63  94 S8        30.08S FOG
$$

IAZ047>049-059>061-072>074-084-011100-
   CENTRAL IOWA

CITY           SKY/WX    TMP DP  RH WIND       PRES   REMARKS
AMES           CLEAR     55  54  96 W3        30.07R
ANKENY *       PTCLDY    57  57 100 CALM      30.07S
CHARITON *     PTCLDY    61  59  94 CALM      30.07R
DES MOINES     MOCLDY    65  61  87 CALM      30.06S
GRINNELL*      PTCLDY    59  55  88 W3        30.08R
KNOXVILLE *    PTCLDY    64  61  88 CALM      30.06R
MARSHALLTOWN   CLEAR     57  55  93 CALM      30.06S
PELLA *        PTCLDY    61  61 100 CALM      30.08R FOG
PERRY *          N/A     57  57 100 CALM      30.07S
$$

IAZ004>006-015-016-023>025-035-036-011100-
   NORTH CENTRAL IOWA

CITY           SKY/WX    TMP DP  RH WIND       PRES   REMARKS
ALGONA *       PTCLDY    59  57  94 SW9       30.08R
CLARION *      PTCLDY    57  57 100 S3        30.07S
ESTHERVILLE    CLEAR     58  56  93 W5        30.07S
FORT DODGE *   PTCLDY    55  54  94 CALM      30.08S
MASON CITY     CLEAR     58  56  93 W5        30.08S
FOREST CITY *  CLEAR     54  54 100 CALM      30.07S FOG
IOWA FALLS *     N/A     57  55  94 CALM      30.08S
$$

IAZ007>011-017>019-026>030-037>042-050>054-066-011100-
   NORTHEAST IOWA

CITY           SKY/WX    TMP DP  RH WIND       PRES   REMARKS
CEDAR RAPIDS   CLEAR     62  60  93 CALM      30.06R
CHARLES CITY * FOG       57  55  94 CALM      30.07S VSB 3/4
CLINTON *      PTCLDY    61  57  88 SW3       30.09S
DECORAH *      PTCLDY    57  55  94 CALM      30.06R
DUBUQUE        CLEAR     58  57  97 S3        30.07S
MONTICELLO *   CLEAR     55  55 100 CALM      30.07R
OELWEIN *      CLEAR     59  59 100 CALM      30.07S
WATERLOO       CLEAR     57  55  93 CALM      30.05S
$$

IAZ064-065-067-068-078-011100-
   EAST CENTRAL IOWA

CITY           SKY/WX    TMP DP  RH WIND       PRES   REMARKS
DAVENPORT      MOCLDY    65  59  81 CALM      30.07S
IOWA CITY      MOCLDY    64  62  93 CALM      30.08R
MT. PLEASANT * CLOUDY    64  63  94 CALM      30.07S
MUSCATINE *    MOCLDY    64  61  88 CALM      30.06S
QUAD CITIES    MOCLDY    65  62  90 S3        30.06S
$$

IAZ062-063-075>077-085>089-095>099-011100-
   SOUTHEAST IOWA

CITY           SKY/WX    TMP DP  RH WIND       PRES   REMARKS
BURLINGTON     MOCLDY    65  63  93 CALM      30.06S
FAIRFIELD *    MOCLDY    66  61  82 S5        30.07S
FORT MADISON * MOCLDY    64  63  94 CALM      30.07S
KEOKUK *       MOCLDY    64  61  88 S3        30.06S
OSKALOOSA *      N/A     63  61  94 CALM      30.07S
CENTERVILLE *  MOCLDY    59  59 100 CALM      30.08S
OTTUMWA        MOCLDY    62  59  90 CALM      30.06S
WASHINGTON *   PTCLDY    63  63 100 CALM      30.07S
$$

ABBREVIATIONS USED IN REMARKS
   TC - TEMPERATURES IN CELSIUS
  WCI - WIND CHILL INDEX
   HX - HEAT INDEX
  VSB - VISIBILITY
$$




USA.gov is the U.S. government's official web portal to all federal, state and local government web resources and services.